GW1076 Weather Reports


Display with metric or nautical units.
time (UTC)temp
F
wind
direction
speed
MPH
gust
MPH
rain 1hr
in
rain 24hr
in
rain mn
in
humidity
%
barometer
mb
20260506073043 56 347 3.0 9.0 0.00 0.00 0.00 86 1009.8
20260506072536 56 357 4.0 10.0 0.00 0.00 0.00 86 1009.8
20260506072033 56 350 6.0 10.0 0.00 0.00 0.00 85 1009.9
20260506071542 56 330 5.0 10.0 0.00 0.00 0.00 85 1009.9
20260506071033 57 13 4.0 10.0 0.00 0.00 0.00 85 1009.8
20260506070538 57 2 5.0 10.0 0.00 0.00 0.00 84 1009.9
20260506062033 59 25 4.0 8.0 0.00 0.00 0.00 81 1009.2
20260506061542 59 20 4.0 8.0 0.00 0.00 0.00 81 1009.2
20260506061034 59 35 5.0 8.0 0.00 0.00 0.00 82 1009.2
20260506060533 59 32 3.0 5.0 0.00 0.00 0.00 81 1009.3
20260506051035 63 23 8.0 14.0 0.00 0.00 0.00 78 1009.6
20260506050533 63 60 7.0 12.0 0.00 0.00 0.00 78 1009.5
20260506045038 64 39 5.0 11.0 0.00 0.00 0.00 76 1009.5
20260506044543 64 20 5.0 11.0 0.00 0.00 0.00 76 1009.4
20260506044034 64 11 8.0 11.0 0.00 0.00 0.00 75 1009.5
20260506043532 65 24 6.0 12.0 0.00 0.00 0.00 75 1009.3
20260506043040 65 51 7.0 12.0 0.00 0.00 0.00 75 1009.2
20260506042536 65 43 7.0 10.0 0.00 0.00 0.00 75 1009.2
20260506042033 65 44 5.0 12.0 0.00 0.00 0.00 76 1009.3
20260506041548 65 18 7.0 12.0 0.00 0.00 0.00 75 1009.2
20260506041032 65 63 3.0 7.0 0.00 0.00 0.00 74 1009.2
20260506040532 66 18 3.0 6.0 0.00 0.00 0.00 74 1009.2
20260506040046 66 25 4.0 7.0 0.00 0.00 0.00 73 1009.1
20260506035535 66 8 3.0 7.0 0.00 0.00 0.00 73 1008.9
20260506035035 66 36 4.0 8.0 0.00 0.00 0.00 72 1008.7
20260506034543 67 37 4.0 8.0 0.00 0.00 0.00 72 1008.7
20260506034031 67 37 5.0 8.0 0.00 0.00 0.00 72 1008.8
20260506033537 67 359 4.0 8.0 0.00 0.00 0.00 72 1009.0
20260506033043 67 15 4.0 8.0 0.00 0.00 0.00 72 1008.9
20260506032536 67 16 5.0 11.0 0.00 0.00 0.00 72 1008.9
20260506032033 67 359 6.0 11.0 0.00 0.00 0.00 71 1009.0
20260506031550 67 334 5.0 7.0 0.00 0.00 0.00 72 1008.9
20260506031038 67 4 5.0 8.0 0.00 0.00 0.00 72 1008.8
20260506030533 68 4 5.0 8.0 0.00 0.00 0.00 72 1008.7
20260506030052 68 19 4.0 8.0 0.00 0.00 0.00 71 1008.6
20260506025532 68 39 5.0 8.0 0.00 0.00 0.00 71 1008.3
20260506025036 68 2 5.0 8.0 0.00 0.00 0.00 71 1008.2
20260506024555 68 52 4.0 7.0 0.00 0.00 0.00 70 1008.1
20260506024033 69 4 4.0 7.0 0.00 0.00 0.00 70 1007.9
20260506023534 69 355 3.0 10.0 0.00 0.00 0.00 69 1007.7
20260506023058 69 15 6.0 10.0 0.00 0.00 0.00 68 1007.5
20260506022532 70 28 6.0 11.0 0.00 0.00 0.00 68 1007.3
20260506022032 70 23 8.0 11.0 0.00 0.00 0.00 68 1007.3
20260506021554 70 23 7.0 11.0 0.00 0.00 0.00 67 1006.9
20260506021032 70 346 8.0 12.0 0.00 0.00 0.00 67 1006.9
20260506020532 71 7 7.0 15.0 0.00 0.00 0.00 67 1006.8
20260506020042 71 23 9.0 15.0 0.00 0.00 0.00 67 1006.8
20260506015535 71 34 10.0 13.0 0.00 0.00 0.00 67 1006.5
20260506015034 72 26 9.0 14.0 0.00 0.00 0.00 66 1006.4
20260506014544 72 322 9.0 14.0 0.00 0.00 0.00 67 1006.2
20260506014032 73 20 7.0 12.0 0.00 0.00 0.00 67 1006.2
20260506013532 73 11 6.0 9.0 0.00 0.00 0.00 69 1006.0
20260506013039 74 18 5.0 9.0 0.00 0.00 0.00 67 1005.9
20260506012533 75 12 7.0 12.0 0.00 0.00 0.00 66 1005.7
20260506012032 75 35 7.0 12.0 0.00 0.00 0.00 66 1005.6
20260506011539 75 352 8.0 12.0 0.00 0.00 0.00 65 1005.4
20260506011032 76 13 7.0 15.0 0.00 0.00 0.00 66 1005.4
20260506010532 77 20 7.0 16.0 0.00 0.00 0.00 65 1005.3
20260506010048 77 19 9.0 16.0 0.00 0.00 0.00 63 1005.1
20260506005533 78 32 7.0 14.0 0.00 0.00 0.00 64 1004.8
20260506005032 78 10 7.0 14.0 0.00 0.00 0.00 63 1004.7
20260506004549 79 38 9.0 13.0 0.00 0.00 0.00 62 1004.7
20260506004034 80 344 5.0 12.0 0.00 0.00 0.00 61 1004.7
20260506003533 81 360 8.0 16.0 0.00 0.00 0.00 60 1004.5
20260506003042 83 360 9.0 16.0 0.00 0.00 0.00 57 1004.4
20260506002533 85 6 3.0 5.0 0.00 0.00 0.00 58 1004.3
20260506002033 85 0 0.0 3.0 0.00 0.00 0.00 56 1004.3
20260506001545 86 138 0.0 6.0 0.00 0.00 0.00 54 1004.0
20260506001034 86 143 2.0 6.0 0.00 0.00 0.00 53 1004.1
20260506000533 87 212 3.0 5.0 0.00 0.00 0.00 52 1004.0
20260506000038 88 148 3.0 6.0 0.00 0.00 0.00 52 1004.0
20260505235532 89 128 3.0 6.0 0.00 0.00 0.00 52 1004.0
20260505235032 89 155 3.0 6.0 0.00 0.00 0.00 46 1003.9
20260505234600 90 217 1.0 5.0 0.00 0.00 0.00 44 1004.0
20260505234035 89 160 2.0 8.0 0.00 0.00 0.00 45 1004.0
20260505233533 89 194 4.0 8.0 0.00 0.00 0.00 45 1004.1
20260505233046 89 226 4.0 8.0 0.00 0.00 0.00 43 1004.2
20260505232532 89 226 4.0 8.0 0.00 0.00 0.00 45 1004.2
20260505232034 89 236 4.0 8.0 0.00 0.00 0.00 47 1004.2
20260505231545 89 189 3.0 8.0 0.00 0.00 0.00 48 1004.2
20260505231031 89 206 4.0 10.0 0.00 0.00 0.00 47 1004.2
20260505230532 89 207 4.0 10.0 0.00 0.00 0.00 46 1004.1
20260505230042 90 190 5.0 8.0 0.00 0.00 0.00 49 1004.0
20260505225533 89 161 5.0 8.0 0.00 0.00 0.00 49 1003.9
20260505225035 90 229 4.0 9.0 0.00 0.00 0.00 48 1004.0
20260505224539 90 220 4.0 9.0 0.00 0.00 0.00 49 1004.0
20260505224035 90 194 5.0 9.0 0.00 0.00 0.00 49 1003.9
20260505223532 89 176 5.0 12.0 0.00 0.00 0.00 51 1004.0
20260505223041 89 221 6.0 12.0 0.00 0.00 0.00 49 1004.0
20260505222535 89 192 6.0 10.0 0.00 0.00 0.00 50 1004.0
20260505222032 89 172 6.0 10.0 0.00 0.00 0.00 52 1004.2
20260505221539 89 158 6.0 9.0 0.00 0.00 0.00 50 1004.1
20260505221032 89 173 4.0 8.0 0.00 0.00 0.00 51 1004.2
20260505220532 89 205 4.0 9.0 0.00 0.00 0.00 51 1004.2
20260505220041 89 199 4.0 9.0 0.00 0.00 0.00 52 1004.2
20260505215532 89 211 4.0 12.0 0.00 0.00 0.00 50 1004.3
20260505215033 89 212 5.0 12.0 0.00 0.00 0.00 50 1004.4
20260505214602 89 230 5.0 9.0 0.00 0.00 0.00 51 1004.4
20260505214033 89 211 3.0 10.0 0.00 0.00 0.00 50 1004.3
20260505213534 89 208 6.0 10.0 0.00 0.00 0.00 48 1004.4
20260505213056 89 197 5.0 9.0 0.00 0.00 0.00 50 1004.2
20260505212533 89 220 5.0 9.0 0.00 0.00 0.00 50 1004.2
20260505212034 89 239 5.0 10.0 0.00 0.00 0.00 51 1004.3
20260505211541 88 200 5.0 10.0 0.00 0.00 0.00 50 1004.5
20260505211033 88 203 5.0 10.0 0.00 0.00 0.00 51 1004.4
20260505210532 88 209 3.0 8.0 0.00 0.00 0.00 51 1004.5
20260505210040 88 257 4.0 11.0 0.00 0.00 0.00 52 1004.6
20260505205534 88 238 3.0 11.0 0.00 0.00 0.00 53 1004.6
20260505205034 88 245 6.0 11.0 0.00 0.00 0.00 48 1004.7
20260505204550 89 226 4.0 11.0 0.00 0.00 0.00 53 1004.9
20260505204034 88 240 6.0 11.0 0.00 0.00 0.00 52 1004.9
20260505203533 88 240 6.0 11.0 0.00 0.00 0.00 52 1004.9
20260505203049 88 214 4.0 11.0 0.00 0.00 0.00 51 1004.9
20260505202532 88 250 5.0 12.0 0.00 0.00 0.00 50 1005.1
20260505202034 88 223 6.0 12.0 0.00 0.00 0.00 52 1005.2
20260505201541 88 220 4.0 11.0 0.00 0.00 0.00 52 1005.3
20260505201034 88 256 7.0 11.0 0.00 0.00 0.00 50 1005.4
20260505200536 89 257 3.0 11.0 0.00 0.00 0.00 50 1005.4
20260505200101 88 205 5.0 11.0 0.00 0.00 0.00 56 1005.3
20260505195537 88 234 7.0 11.0 0.00 0.00 0.00 53 1005.4
20260505195034 88 251 5.0 11.0 0.00 0.00 0.00 55 1005.3
20260505194545 87 200 5.0 10.0 0.00 0.00 0.00 58 1005.3
20260505194032 87 247 5.0 9.0 0.00 0.00 0.00 55 1005.4
20260505193532 87 234 5.0 10.0 0.00 0.00 0.00 56 1005.5
20260505193050 87 216 6.0 10.0 0.00 0.00 0.00 56 1005.6
20260505192535 87 224 7.0 10.0 0.00 0.00 0.00 54 1005.6
20260505192036 87 221 5.0 12.0 0.00 0.00 0.00 52 1005.6
20260505191544 87 246 6.0 12.0 0.00 0.00 0.00 54 1005.7
20260505191035 87 229 6.0 11.0 0.00 0.00 0.00 57 1005.7
20260505190533 86 263 6.0 13.0 0.00 0.00 0.00 59 1005.8
20260505190049 86 275 7.0 13.0 0.00 0.00 0.00 57 1005.8
20260505185534 86 247 7.0 13.0 0.00 0.00 0.00 57 1005.9
20260505185033 86 272 8.0 12.0 0.00 0.00 0.00 58 1005.9
20260505184540 86 264 5.0 12.0 0.00 0.00 0.00 57 1006.0
20260505184037 85 288 6.0 15.0 0.00 0.00 0.00 58 1006.1
20260505183532 85 237 9.0 15.0 0.00 0.00 0.00 57 1006.1
20260505183039 85 228 9.0 15.0 0.00 0.00 0.00 58 1006.1
20260505182533 85 258 8.0 14.0 0.00 0.00 0.00 59 1006.2
20260505182032 85 250 7.0 14.0 0.00 0.00 0.00 61 1006.2
20260505181544 85 236 7.0 14.0 0.00 0.00 0.00 63 1006.3
20260505181036 85 221 6.0 14.0 0.00 0.00 0.00 62 1006.2
20260505180531 84 263 8.0 14.0 0.00 0.00 0.00 61 1006.2
20260505180103 84 258 7.0 14.0 0.00 0.00 0.00 62 1006.2
20260505175537 84 166 7.0 14.0 0.00 0.00 0.00 63 1006.2
20260505175037 84 245 9.0 14.0 0.00 0.00 0.00 64 1006.2
20260505174600 83 229 7.0 14.0 0.00 0.00 0.00 66 1006.3
20260505174037 83 245 6.0 14.0 0.00 0.00 0.00 66 1006.4
20260505173536 82 222 5.0 13.0 0.00 0.00 0.00 67 1006.3
20260505173045 82 205 6.0 13.0 0.00 0.00 0.00 68 1006.4
20260505172534 82 229 7.0 13.0 0.00 0.00 0.00 69 1006.5
20260505172035 82 179 7.0 13.0 0.00 0.00 0.00 69 1006.5
20260505171546 82 214 9.0 13.0 0.00 0.00 0.00 68 1006.4
20260505171034 81 223 7.0 13.0 0.00 0.00 0.00 70 1006.4
20260505170533 81 256 8.0 16.0 0.00 0.00 0.00 69 1006.4
20260505170047 81 239 9.0 16.0 0.00 0.00 0.00 70 1006.4
20260505165533 80 223 9.0 15.0 0.00 0.00 0.00 70 1006.4
20260505165101 80 200 6.0 12.0 0.00 0.00 0.00 70 1006.5
20260505164549 80 240 8.0 12.0 0.00 0.00 0.00 70 1006.5
20260505164032 80 266 6.0 11.0 0.00 0.00 0.00 72 1006.5
20260505163533 80 262 7.0 11.0 0.00 0.00 0.00 71 1006.5
20260505163053 80 207 6.0 13.0 0.00 0.00 0.00 72 1006.5
20260505162535 79 214 5.0 13.0 0.00 0.00 0.00 72 1006.6
20260505162036 79 232 6.0 13.0 0.00 0.00 0.00 73 1006.6
20260505161604 78 211 5.0 11.0 0.00 0.00 0.00 73 1006.5
20260505161036 78 205 4.0 10.0 0.00 0.00 0.00 75 1006.5
20260505160534 78 242 6.0 10.0 0.00 0.00 0.00 76 1006.4
20260505153049 76 208 8.0 14.0 0.00 0.00 0.00 76 1006.0
20260505152534 76 189 8.0 14.0 0.00 0.00 0.00 76 1006.0
20260505152036 76 243 6.0 14.0 0.00 0.00 0.00 77 1006.0
20260505151546 76 227 7.0 16.0 0.00 0.00 0.00 77 1006.0
20260505151033 76 217 9.0 16.0 0.00 0.00 0.00 78 1006.0
20260505150536 76 229 9.0 15.0 0.00 0.00 0.00 77 1006.0
20260505140533 72 204 7.0 14.0 0.00 0.00 0.00 83 1006.0
20260505125033 67 158 3.0 8.0 0.00 0.00 0.00 90 1005.4
20260505124542 67 226 3.0 7.0 0.00 0.00 0.00 90 1005.4
20260505124035 66 179 4.0 7.0 0.00 0.00 0.00 91 1005.4
20260505123533 66 205 3.0 6.0 0.00 0.00 0.00 91 1005.5
20260505123054 65 167 2.0 6.0 0.00 0.00 0.00 91 1005.6
20260505122536 65 131 3.0 6.0 0.00 0.00 0.00 91 1005.4
20260505122040 65 160 3.0 6.0 0.00 0.00 0.00 92 1005.4
20260505121542 65 163 2.0 6.0 0.00 0.00 0.00 91 1005.3
20260505121032 65 187 3.0 5.0 0.00 0.00 0.00 91 1005.3
20260505120532 65 150 2.0 5.0 0.00 0.00 0.00 91 1005.3
20260505120050 65 162 2.0 4.0 0.00 0.00 0.00 91 1005.2
20260505115533 65 193 1.0 4.0 0.00 0.00 0.00 91 1005.1
20260505115035 65 201 2.0 3.0 0.00 0.00 0.00 91 1005.1
20260505114548 65 203 0.0 2.0 0.00 0.00 0.00 91 1005.0
20260505114035 65 0 0.0 2.0 0.00 0.00 0.00 90 1005.0
20260505113533 65 0 0.0 1.0 0.00 0.00 0.00 90 1004.9
20260505113046 65 0 0.0 2.0 0.00 0.00 0.00 90 1004.9
20260505112534 65 0 0.0 4.0 0.00 0.00 0.00 89 1005.0
20260505112032 66 178 1.0 4.0 0.00 0.00 0.00 90 1005.0
20260505111546 66 226 1.0 4.0 0.00 0.00 0.00 89 1005.0
20260505111033 66 162 0.0 3.0 0.00 0.00 0.00 89 1005.0
20260505110533 66 224 1.0 3.0 0.00 0.00 0.00 89 1005.0
20260505102033 67 188 1.0 4.0 0.00 0.00 0.00 87 1004.7
20260505101539 67 156 1.0 4.0 0.00 0.00 0.00 87 1004.7
20260505101033 67 155 2.0 6.0 0.00 0.00 0.00 87 1004.8
20260505100533 67 165 2.0 6.0 0.00 0.00 0.00 87 1004.9
20260505100050 67 176 3.0 6.0 0.00 0.00 0.00 87 1005.0
20260505095532 67 177 2.0 4.0 0.00 0.00 0.00 86 1004.9
20260505095036 67 148 1.0 6.0 0.00 0.00 0.00 86 1004.9
20260505094545 68 0 2.0 6.0 0.00 0.00 0.00 86 1004.9
20260505094033 68 155 3.0 8.0 0.00 0.00 0.00 86 1004.8
20260505093533 68 221 4.0 8.0 0.00 0.00 0.00 85 1005.0
20260505093043 68 165 5.0 7.0 0.00 0.00 0.00 85 1004.9
20260505092535 68 212 4.0 7.0 0.00 0.00 0.00 85 1004.9
20260505092033 68 167 4.0 10.0 0.00 0.00 0.00 85 1005.1
20260505091557 68 169 6.0 10.0 0.00 0.00 0.00 85 1005.0
20260505091032 69 214 4.0 10.0 0.00 0.00 0.00 84 1005.1
20260505090531 69 177 3.0 9.0 0.00 0.00 0.00 84 1005.1
20260505090045 69 130 4.0 10.0 0.00 0.00 0.00 84 1005.1
20260505085536 69 169 5.0 10.0 0.00 0.00 0.00 83 1005.3
20260505085033 69 210 5.0 12.0 0.00 0.00 0.00 83 1005.4
20260505084539 69 208 4.0 12.0 0.00 0.00 0.00 83 1005.4
20260505084032 69 190 5.0 11.0 0.00 0.00 0.00 83 1005.4
20260505083532 69 196 5.0 11.0 0.00 0.00 0.00 83 1005.3
20260505083043 69 188 4.0 9.0 0.00 0.00 0.00 83 1005.4
20260505082534 69 165 5.0 9.0 0.00 0.00 0.00 83 1005.3
20260505082033 69 210 5.0 9.0 0.00 0.00 0.00 83 1005.5
20260505081554 69 200 4.0 9.0 0.00 0.00 0.00 83 1005.5
20260505081033 69 210 4.0 7.0 0.00 0.00 0.00 83 1005.5
20260505080533 69 201 4.0 8.0 0.00 0.00 0.00 83 1005.7